Terug naar catalogus

STARLINK-36068

ActiefCommunicatieVLEO
NORAD 66845·PAYLOAD·🇺🇸 United States

Gelanceerd Dec 2, 2025 vanaf Vandenberg Space Force Base

Loading…

Volgende Passages (komende 24 uur)

TLE

VersSource: CelesTrak SupGP

Epoch: Sep 15, 2026, 03:58 UTC

1 66845C 25280AA  26258.16576389  .00160440  00000+0  13444-1 0  2583
2 66845  70.0011 216.5766 0003113 257.5451   6.6509 14.98254831    12

Volg STARLINK-36068 in realtime met AllMySat

Download on the App Store